Weather Roundup
Issued by NWS

Home | Current Version | Previous Version | Text Only | Print | Product List | Glossary On
Versions: 1 2 3 4 5 6 7 8 9 10 11 12 13 14 15 16 17 18 19 20 21 22 23 24 25 26 27 28 29 30 31 32 33 34 35 36 37 38 39 40 41 42 43 44 45 46 47 48 49 50
000
NZUS93 KARX 012210
HRRWXR

CURRENT HOURLY OBSERVATIONS ACROSS
MUCH OF THE UPPER MISSISSIPPI VALLEY
NATIONAL WEATHER SERVICE LA CROSSE WI
500 PM CDT SAT AUG 01 2015


...SOUTHEAST MINNESOTA...


CITY           SKY/WX    TMP DP  RH WIND       PRES   REMARKS
ROCHESTER      SUNNY     82  67  60 W9        29.93F
ROCHESTER/MAYO FAIR      84  62  48 W9G18     29.92F
WINONA         SUNNY     82  61  47 W5        29.90F
AUSTIN         MOSUNNY   84  66  54 W8        29.92F
ALBERT LEA     MOSUNNY   84  64  51 SW8       29.92F
DODGE CENTER   SUNNY     82  66  57 SW8       29.92F
PRESTON        MOSUNNY   83  63  51 W10       29.94F
OWATONNA       MOSUNNY   84  66  54 S6        29.90F
FARIBAULT      SUNNY     84  68  58 S6        29.90F
$$

...ELSEWHERE IN MINNESOTA...


CITY           SKY/WX    TMP DP  RH WIND       PRES   REMARKS
MINNEAPOLIS    MOSUNNY   84  62  47 S12       29.87F
INTNL FALLS    MOSUNNY   79  55  43 SW15G23   29.76F
DULUTH         MOSUNNY   82  52  35 W14       29.83F
RED WING       SUNNY     86  57  37 SW6       29.87F
REDWOOD FALLS  MOSUNNY   88  64  44 SW14G21   29.84F
MANKATO        SUNNY     82  70  65 S6        29.88F
WORTHINGTON    MOSUNNY   81  63  54 SW9G16    29.92F
FAIRMONT       MOSUNNY   86  61  42 SW10      29.90F
$$

...SOUTHWEST WISCONSIN...


CITY           SKY/WX    TMP DP  RH WIND       PRES   REMARKS
LA CROSSE      SUNNY     86  61  42 W8        29.89F
PRAIRIE DU CHI SUNNY     87  57  35 W7        29.90F
BOSCOBEL       SUNNY     89  61  38 NW8       29.90F
LONE ROCK      SUNNY     86  58  38 W12       29.91S
PLATTEVILLE    SUNNY     85  61  44 W12       29.93F
FORT MC COY    SUNNY     85  55  35 W9G17     29.90F
CAMP DOUGLAS   SUNNY     83  60  45 W10       29.89F
VIROQUA        FAIR      82  62  51 W7        29.93F
WIS DELLS      SUNNY     85  51  31 W7G16     29.90F
$$

...ELSEWHERE IN WISCONSIN...


CITY           SKY/WX    TMP DP  RH WIND       PRES   REMARKS
MILWAUKEE      MOSUNNY   85  56  37 W13       29.89F
MADISON        MOSUNNY   86  61  42 NW8       29.90F
GREEN BAY      MOSUNNY   82  51  34 W13       29.87F
EAU CLAIRE     MOSUNNY   82  56  40 W10       29.88F
BLACK RVR FLS  FAIR      85  53  33 W7        29.89F
MEDFORD        SUNNY     77  55  46 W12       29.90F
WAUSAU         MOSUNNY   79  51  37 W13       29.88F
WIS RAPIDS     SUNNY     84  49  29 W12       29.90F
MARSHFIELD     SUNNY     81  51  35 W10       29.90F
RICE LAKE      MOSUNNY   79  53  40 W6        29.90S
$$

...NORTHEAST IOWA...


CITY           SKY/WX    TMP DP  RH WIND       PRES   REMARKS
DECORAH        MOSUNNY   82  64  54 VRB6G14   29.93F
MASON CITY     PTSUNNY   86  69  56 W14       29.94F HX  90
CHARLES CITY   PTSUNNY   84  70  61 W7        29.94F
OELWEIN        PTSUNNY   84  70  61 W8        29.95F
$$

...ELSEWHERE IN IOWA...


CITY           SKY/WX    TMP DP  RH WIND       PRES   REMARKS
DES MOINES     CLOUDY    87  69  54 S8        29.92F HX  91
IOWA CITY      PTSUNNY   85  69  58 W7        29.95F
FORT DODGE     CLOUDY    84  66  54 S5        29.93F
$$

...NORTHERN ILLINOIS...


CITY           SKY/WX    TMP DP  RH WIND       PRES   REMARKS
CHICAGO-OHARE  PTSUNNY   85  59  41 W14G24    29.91F
CHICAGO-MIDWAY PTSUNNY   87  57  35 SW15G25   29.91F
MOLINE         MOSUNNY   84  64  50 SW8       29.94F
ROCKFORD       MOSUNNY   85  63  47 W15G24    29.93F
PEORIA         SUNNY     88  59  37 W12       29.96F
$$

NOTE: "FAIR" INDICATES FEW OR NO CLOUDS BELOW 12,000 FEET WITH NO
SIGNIFICANT WEATHER AND/OR OBSTRUCTIONS TO VISIBILITY. WIND
SPEEDS ARE IN MILES-PER-HOUR.



USA.gov is the U.S. government's official web portal to all federal, state and local government web resources and services.